Location: Bartshausen
(51.8454°N, 9.8167°E)
Time: 10:57:37
(UTC+00:00)

Iridium 4 Rocket - Pass Details

Date: 22 February 2026
Orbit: 579 x 887 km, 86.9° (Epoch: 8 March)

Event Time Altitude Azimuth Distance (km) Brightness Sun altitude
Rises 20:04:57 0° 344° (NNW) 2,981 7.1 -30.5°
Reaches altitude 10° 20:07:51 10° 326° (NW) 2,014 6.4 -30.9°
Maximum altitude 20:10:45 17° 284° (WNW) 1,536 5.8 -31.3°
Drops below altitude 10° 20:13:32 10° 243° (WSW) 1,929 5.9 -31.7°
Sets 20:16:15 0° 223° (SW) 2,802 6.6 -32.1°
